CAPE
0 0 0 0 0 0 0 0 0 0 0 0 0 0 0 0 0 0 0 0 0 0
0 0 0 0 0 0 0 0 0 0 0 0 0 0 0 0 0 0 0 0 0 0
0 0 0 0 0 0 0 0 0 0 0 0 0 0 0 0 0 0 0 0 0 0
0 0 0 0 0 0 0 0 0 0 0 0 0 0 0 0 0 0 0 0 0 0
0 0 0 0 0 0 0 0 0 0 0 0 0 0 0 0 0 0 0 0 0 0
0 0 0 0 0 0 0 0 0 0 0 0 0 0 0 0 0 0 0 0 0 0
0 0 0 0 0 0 0 0 0 0 0 0 0 0 0 0 0 0 0 0 0 0
0 0 0 0 0 0 0 0 0 0 0 0 0 0 0 0 0 0 0 0 0 0
0 0 0 0 0 0 0 0 0 0 0 1 0 0 0 0 0 0 0 0 0 0
0 0 0 0 0 0 0 0 0 0 0 0 0 4 0 0 0 1 1 1 0 0
0 0 0 0 0 0 0 0 0 0 0 0 0 0 5 2 1 0 0 1 0 0
0 0 0 0 0 0 0 0 0 1 1 0 0 0 3 10 0 0 1 0 0 0
0 0 0 0 0 0 0 1 0 0 1 1 0 0 0 3 0 1 0 0 0 0
0 0 0 0 0 0 1 0 0 0 0 1 0 0 4 23 0 0 1 0 0 0
CIN
0 0 0 0 0 0 0 0 0 0 0 0 0 0 0 0 0 0 0 0 0 0
0 0 0 0 0 0 0 0 0 0 0 0 0 0 0 0 0 0 0 0 0 0
0 0 0 0 0 0 0 0 0 0 0 0 0 0 0 0 0 0 0 0 0 0
0 0 0 0 0 0 0 0 0 0 0 0 0 0 0 0 0 0 0 0 0 0
0 0 0 0 0 0 0 0 0 0 0 0 0 0 0 0 0 0 0 0 0 0
0 0 0 0 0 0 0 0 0 0 0 0 0 0 0 0 0 0 0 0 0 0
0 0 0 0 0 0 0 0 0 0 0 0 0 0 0 0 0 0 0 0 0 0
0 0 0 0 0 0 0 0 0 0 0 0 0 0 0 0 0 0 0 0 0 0
0 0 0 0 0 0 0 0 0 0 0 0 0 0 0 0 0 0 0 0 0 0
0 0 0 0 0 0 0 0 0 0 0 0 0 0 -1 -1 0 0 0 0 0 0
0 0 0 0 0 0 0 0 0 0 0 0 0 0 -2 -1 0 0 0 0 0 0
0 0 0 0 0 0 0 0 0 0 0 0 0 0 -4 -24 0 0 0 0 0 0
0 0 0 0 0 0 0 -1 -1 0 -1 0 0 0 0 -13 0 0 0 0 0 0
0 0 0 0 0 0 -1 0 -1 0 -1 -1 0 0 -6 -9 0 0 0 0 -1 0
Wind_Speed
24 26 27 29 30 29 29 29 29 28 26 26 25 25 25 26 26 26 26 26 26 27
26 28 29 31 31 32 33 32 32 31 29 27 26 26 26 28 28 28 28 28 28 28
28 29 31 33 35 36 37 36 36 35 33 32 30 30 30 31 31 31 30 29 29 28
31 33 34 35 37 39 40 40 39 37 36 36 34 33 33 33 33 33 33 31 30 29
33 35 37 38 39 40 41 41 41 40 37 36 34 33 33 33 33 33 33 32 30 29
36 38 39 40 41 41 42 42 41 39 38 36 34 33 31 32 32 31 31 30 29 28
39 40 41 41 42 43 43 43 42 41 40 38 36 34 33 32 32 31 31 30 29 28
39 40 41 43 44 45 45 44 44 44 42 40 38 36 35 33 33 33 31 30 29 26
40 42 43 44 45 45 45 46 46 45 44 44 40 37 36 34 33 32 31 29 25 23
40 42 43 44 45 45 46 46 46 46 45 45 44 42 38 35 33 33 30 27 23 21
44 45 45 46 47 47 47 46 47 47 46 46 45 44 41 36 32 27 26 23 21 18
45 47 48 49 49 48 47 47 47 48 47 48 47 46 41 37 30 27 24 19 16 16
44 46 47 46 47 46 46 47 47 49 47 47 48 46 41 34 26 23 17 19 19 18
43 44 44 45 45 46 47 48 49 50 48 46 42 42 35 24 18 19 16 15 16 11
Wind_Direction
319 315 313 312 312 312 311 311 311 307 303 300 299 298 297 296 295 294 294 295 296 299
323 320 318 317 317 313 311 310 309 309 306 302 297 295 295 293 292 291 291 292 293 294
327 324 321 319 317 315 313 311 308 306 305 302 298 295 293 293 292 290 290 291 291 292
328 326 323 321 319 317 315 314 310 306 304 302 299 296 293 292 292 289 288 288 288 288
329 328 326 324 322 321 318 317 314 311 307 304 301 298 295 292 291 288 287 286 286 288
328 327 325 324 324 323 322 321 319 317 313 310 306 302 299 296 294 291 288 286 285 284
326 326 325 325 325 324 323 321 320 318 316 312 309 305 302 299 297 294 291 288 284 283
326 326 326 326 325 324 323 321 320 317 315 313 309 306 303 299 296 293 291 290 285 281
325 325 324 324 324 324 323 322 321 319 316 312 309 306 302 298 297 292 290 289 287 281
327 326 325 325 324 323 322 322 321 319 317 313 310 306 301 296 293 292 287 284 281 280
326 325 325 326 325 324 323 321 320 319 318 316 312 308 302 296 293 290 288 278 277 274
326 325 325 325 325 324 324 323 321 320 318 316 314 312 303 298 288 287 284 278 275 283
327 326 326 327 326 325 325 324 323 320 318 316 314 314 308 297 282 283 283 277 281 285
328 328 327 326 326 325 324 323 322 320 319 319 318 317 311 293 275 276 281 281 285 280